sat.trackr.live / text

‹ back to catalog

STARLINK-3671

NORAD 51972 · 2022-025S

PAYLOAD ACTIVE UNKNOWN

§ Identity

Operator
Country
US
Launch date
2022-03-09
Launch site
AFETR
Launch vehicle
Mass (kg)
RCS (m²)

Purposes: comms

External: N2YO · Heavens-Above · Gunter

§ Orbital elements

Epoch: 2026-05-25T02:08:44.680128Z

Period
94.16 min
Inclination
53.1559°
Eccentricity
0.0001286
Mean motion
15.29355377 rev/d
Perigee alt
476.9 km
Apogee alt
478.6 km
Semi-major
6,855.9 km
B*
1.3426e-5
RAAN
41.7468°
Arg perigee
96.9028°
Mean anomaly
263.2119°
Rev number
23,253

§ Raw data

STARLINK-36711 51972U 22025S   26145.08940602  .00000032  00000+0  13426-4 0  99962 51972  53.1559  41.7468 0001286  96.9028 263.2119 15.29355377232531

JSON: /api/v1/satellites/51972 · /tle

For live sub-satellite position, see the globe view (requires WebGL).

§ Visibility from observer

Set your observer location to see the next 7 days of passes ≥ 10°. The values pass through the URL so the page stays shareable.

No JS? Fill the form by hand. The geolocation button needs JavaScript.